Time,TemperatureF,DewpointF,PressureIn,WindDirection,WindDirectionDegrees,WindSpeedMPH,WindSpeedGustMPH,Humidity,HourlyPrecipIn,Conditions,Clouds,dailyrainin,SoftwareType,DateUTC
2013-01-08 00:52:00,44.2,39.7,30.14,WNW,293,0.0,-999.0,84,0.00,,,0.02,Wunderground v.1.15,2013-01-08 08:52:00,
2013-01-08 00:57:00,44.0,39.8,30.14,N/A,-737280,0.0,-999.0,85,0.00,,,0.02,Wunderground v.1.15,2013-01-08 08:57:00,
2013-01-08 01:02:00,44.0,39.8,30.14,N/A,-737280,0.0,-999.0,85,0.00,,,0.02,Wunderground v.1.15,2013-01-08 09:02:00,
2013-01-08 01:07:00,44.0,39.8,30.14,N/A,-737280,0.0,-999.0,85,0.00,,,0.02,Wunderground v.1.15,2013-01-08 09:07:00,
2013-01-08 01:12:00,43.6,39.7,30.14,WNW,293,0.0,-999.0,86,0.00,,,0.02,Wunderground v.1.15,2013-01-08 09:12:00,
2013-01-08 01:17:00,43.6,39.7,30.14,WNW,293,0.0,-999.0,86,0.00,,,0.02,Wunderground v.1.15,2013-01-08 09:17:00,
2013-01-08 01:22:00,43.6,39.7,30.14,WNW,293,0.0,-999.0,86,0.00,,,0.02,Wunderground v.1.15,2013-01-08 09:22:00,
2013-01-08 01:27:00,43.5,39.6,30.13,N/A,-737280,0.0,-999.0,86,0.00,,,0.02,Wunderground v.1.15,2013-01-08 09:27:00,
2013-01-08 01:32:00,43.5,39.6,30.13,N/A,-737280,0.0,-999.0,86,0.00,,,0.02,Wunderground v.1.15,2013-01-08 09:32:00,
2013-01-08 01:37:00,43.5,39.6,30.13,N/A,-737280,0.0,-999.0,86,0.00,,,0.02,Wunderground v.1.15,2013-01-08 09:37:00,
2013-01-08 01:42:00,43.2,39.6,30.13,N/A,-737280,0.0,-999.0,87,0.00,,,0.02,Wunderground v.1.15,2013-01-08 09:42:00,
2013-01-08 01:47:00,43.2,39.6,30.13,N/A,-737280,0.0,-999.0,87,0.00,,,0.02,Wunderground v.1.15,2013-01-08 09:47:00,
2013-01-08 01:52:00,43.2,39.6,30.13,N/A,-737280,0.0,-999.0,87,0.00,,,0.02,Wunderground v.1.15,2013-01-08 09:52:00,
2013-01-08 01:57:00,43.2,39.9,30.14,N/A,-737280,0.0,-999.0,88,0.00,,,0.02,Wunderground v.1.15,2013-01-08 09:57:00,
2013-01-08 02:02:00,43.2,39.9,30.14,N/A,-737280,0.0,-999.0,88,0.00,,,0.02,Wunderground v.1.15,2013-01-08 10:02:00,
2013-01-08 02:07:00,43.2,39.9,30.14,N/A,-737280,0.0,-999.0,88,0.00,,,0.02,Wunderground v.1.15,2013-01-08 10:07:00,
2013-01-08 02:12:00,43.3,40.0,30.14,N/A,-737280,0.0,-999.0,88,0.00,,,0.02,Wunderground v.1.15,2013-01-08 10:12:00,
2013-01-08 02:17:00,43.3,40.0,30.14,N/A,-737280,0.0,-999.0,88,0.00,,,0.02,Wunderground v.1.15,2013-01-08 10:17:00,
2013-01-08 02:22:00,43.3,40.0,30.14,N/A,-737280,0.0,-999.0,88,0.00,,,0.02,Wunderground v.1.15,2013-01-08 10:22:00,
2013-01-08 02:27:00,43.5,40.5,30.15,N/A,-737280,0.0,-999.0,89,0.00,,,0.02,Wunderground v.1.15,2013-01-08 10:27:00,
2013-01-08 02:32:00,43.5,40.5,30.15,N/A,-737280,0.0,-999.0,89,0.00,,,0.02,Wunderground v.1.15,2013-01-08 10:32:00,
2013-01-08 02:37:00,43.5,40.5,30.15,N/A,-737280,0.0,-999.0,89,0.00,,,0.02,Wunderground v.1.15,2013-01-08 10:37:00,
2013-01-08 02:42:00,43.7,40.7,30.15,N/A,-737280,0.0,-999.0,89,0.00,,,0.02,Wunderground v.1.15,2013-01-08 10:42:00,
2013-01-08 02:47:00,43.7,40.7,30.15,N/A,-737280,0.0,-999.0,89,0.00,,,0.02,Wunderground v.1.15,2013-01-08 10:47:00,
2013-01-08 02:52:00,43.7,40.7,30.15,N/A,-737280,0.0,-999.0,89,0.00,,,0.02,Wunderground v.1.15,2013-01-08 10:52:00,
2013-01-08 02:57:00,43.8,40.8,30.14,N/A,-737280,0.0,-999.0,89,0.00,,,0.02,Wunderground v.1.15,2013-01-08 10:57:00,
2013-01-08 03:02:00,43.8,40.8,30.14,N/A,-737280,0.0,-999.0,89,0.00,,,0.02,Wunderground v.1.15,2013-01-08 11:02:00,
2013-01-08 03:07:00,43.8,40.8,30.14,N/A,-737280,0.0,-999.0,89,0.00,,,0.02,Wunderground v.1.15,2013-01-08 11:07:00,
2013-01-08 03:12:00,44.5,41.5,30.14,WNW,293,2.0,-999.0,89,0.00,,,0.02,Wunderground v.1.15,2013-01-08 11:12:00,
2013-01-08 03:17:00,44.5,41.5,30.14,WNW,293,2.0,-999.0,89,0.00,,,0.02,Wunderground v.1.15,2013-01-08 11:17:00,
2013-01-08 03:22:00,44.5,41.5,30.14,WNW,293,2.0,-999.0,89,0.00,,,0.02,Wunderground v.1.15,2013-01-08 11:22:00,
2013-01-08 03:27:00,44.5,41.2,30.13,WNW,293,1.0,-999.0,88,0.00,,,0.02,Wunderground v.1.15,2013-01-08 11:27:00,
2013-01-08 03:32:00,44.5,41.2,30.13,WNW,293,1.0,-999.0,88,0.00,,,0.02,Wunderground v.1.15,2013-01-08 11:32:00,
2013-01-08 03:37:00,44.5,41.2,30.13,WNW,293,1.0,-999.0,88,0.00,,,0.02,Wunderground v.1.15,2013-01-08 11:37:00,
2013-01-08 03:42:00,44.9,41.6,30.13,WNW,293,3.0,-999.0,88,0.00,,,0.02,Wunderground v.1.15,2013-01-08 11:42:00,
2013-01-08 03:47:00,44.9,41.6,30.13,WNW,293,3.0,-999.0,88,0.00,,,0.02,Wunderground v.1.15,2013-01-08 11:47:00,
2013-01-08 03:52:00,44.9,41.6,30.13,WNW,293,3.0,-999.0,88,0.00,,,0.02,Wunderground v.1.15,2013-01-08 11:52:00,
2013-01-08 03:57:00,45.0,41.4,30.13,NNW,338,1.0,-999.0,87,0.00,,,0.02,Wunderground v.1.15,2013-01-08 11:57:00,
2013-01-08 04:02:00,45.0,41.4,30.13,NNW,338,1.0,-999.0,87,0.00,,,0.02,Wunderground v.1.15,2013-01-08 12:02:00,
2013-01-08 04:07:00,45.0,41.4,30.13,NNW,338,1.0,-999.0,87,0.00,,,0.02,Wunderground v.1.15,2013-01-08 12:07:00,
2013-01-08 04:12:00,44.3,41.0,30.12,NNW,338,0.0,-999.0,88,0.00,,,0.02,Wunderground v.1.15,2013-01-08 12:12:00,
2013-01-08 04:17:00,44.3,41.0,30.12,NNW,338,0.0,-999.0,88,0.00,,,0.02,Wunderground v.1.15,2013-01-08 12:17:00,
2013-01-08 04:22:00,44.3,41.0,30.12,NNW,338,0.0,-999.0,88,0.00,,,0.02,Wunderground v.1.15,2013-01-08 12:22:00,
2013-01-08 04:27:00,44.2,40.9,30.12,NNW,338,0.0,-999.0,88,0.00,,,0.02,Wunderground v.1.15,2013-01-08 12:27:00,
2013-01-08 04:32:00,44.2,40.9,30.12,NNW,338,0.0,-999.0,88,0.00,,,0.02,Wunderground v.1.15,2013-01-08 12:32:00,
2013-01-08 04:37:00,44.2,40.9,30.12,NNW,338,0.0,-999.0,88,0.00,,,0.02,Wunderground v.1.15,2013-01-08 12:37:00,
2013-01-08 04:42:00,43.9,40.9,30.11,NNW,338,0.0,-999.0,89,0.00,,,0.02,Wunderground v.1.15,2013-01-08 12:42:00,
2013-01-08 04:47:00,43.9,40.9,30.11,NNW,338,0.0,-999.0,89,0.00,,,0.02,Wunderground v.1.15,2013-01-08 12:47:00,
2013-01-08 04:52:00,43.9,40.9,30.11,NNW,338,0.0,-999.0,89,0.00,,,0.02,Wunderground v.1.15,2013-01-08 12:52:00,
2013-01-08 04:57:00,43.4,40.7,30.10,NNW,338,0.0,-999.0,90,0.00,,,0.02,Wunderground v.1.15,2013-01-08 12:57:00,
2013-01-08 05:02:00,43.4,40.7,30.10,NNW,338,0.0,-999.0,90,0.00,,,0.02,Wunderground v.1.15,2013-01-08 13:02:00,
2013-01-08 05:07:00,43.4,40.7,30.10,NNW,338,0.0,-999.0,90,0.00,,,0.02,Wunderground v.1.15,2013-01-08 13:07:00,
2013-01-08 05:12:00,43.2,40.8,30.09,NNW,338,0.0,-999.0,91,0.00,,,0.02,Wunderground v.1.15,2013-01-08 13:12:00,
2013-01-08 05:17:00,43.2,40.8,30.09,NNW,338,0.0,-999.0,91,0.00,,,0.02,Wunderground v.1.15,2013-01-08 13:17:00,
2013-01-08 05:22:00,43.2,40.8,30.09,NNW,338,0.0,-999.0,91,0.00,,,0.02,Wunderground v.1.15,2013-01-08 13:22:00,
2013-01-08 05:27:00,42.8,40.4,30.09,NNW,338,1.0,-999.0,91,0.00,,,0.02,Wunderground v.1.15,2013-01-08 13:27:00,
2013-01-08 05:32:00,42.8,40.4,30.09,NNW,338,1.0,-999.0,91,0.00,,,0.02,Wunderground v.1.15,2013-01-08 13:32:00,
2013-01-08 05:37:00,42.8,40.4,30.09,NNW,338,1.0,-999.0,91,0.00,,,0.02,Wunderground v.1.15,2013-01-08 13:37:00,
2013-01-08 05:42:00,42.5,40.1,30.09,NNW,338,2.0,-999.0,91,0.00,,,0.02,Wunderground v.1.15,2013-01-08 13:42:00,
2013-01-08 05:47:00,42.5,40.1,30.09,NNW,338,2.0,-999.0,91,0.00,,,0.02,Wunderground v.1.15,2013-01-08 13:47:00,
2013-01-08 05:52:00,42.5,40.1,30.09,NNW,338,2.0,-999.0,91,0.00,,,0.02,Wunderground v.1.15,2013-01-08 13:52:00,
2013-01-08 05:57:00,42.5,39.8,30.08,NNW,338,3.0,-999.0,90,0.00,,,0.02,Wunderground v.1.15,2013-01-08 13:57:00,
2013-01-08 06:02:00,42.5,39.8,30.08,NNW,338,3.0,-999.0,90,0.00,,,0.02,Wunderground v.1.15,2013-01-08 14:02:00,
2013-01-08 06:07:00,42.5,39.8,30.08,NNW,338,3.0,-999.0,90,0.00,,,0.02,Wunderground v.1.15,2013-01-08 14:07:00,
2013-01-08 06:12:00,42.5,39.8,30.06,NNW,338,3.0,-999.0,90,0.02,,,0.02,Wunderground v.1.15,2013-01-08 14:12:00,
2013-01-08 06:17:00,42.5,39.8,30.06,NNW,338,3.0,-999.0,90,0.02,,,0.02,Wunderground v.1.15,2013-01-08 14:17:00,
2013-01-08 06:22:00,42.5,39.8,30.06,NNW,338,3.0,-999.0,90,0.02,,,0.02,Wunderground v.1.15,2013-01-08 14:22:00,
2013-01-08 06:27:00,42.5,40.1,30.05,NNW,338,3.0,-999.0,91,0.02,,,0.02,Wunderground v.1.15,2013-01-08 14:27:00,
2013-01-08 06:32:00,42.5,40.1,30.05,NNW,338,3.0,-999.0,91,0.02,,,0.02,Wunderground v.1.15,2013-01-08 14:32:00,
2013-01-08 06:37:00,42.5,40.1,30.05,NNW,338,3.0,-999.0,91,0.02,,,0.02,Wunderground v.1.15,2013-01-08 14:37:00,
2013-01-08 06:42:00,42.6,40.4,30.04,NNW,338,2.0,-999.0,92,0.02,,,0.02,Wunderground v.1.15,2013-01-08 14:42:00,
2013-01-08 06:47:00,42.6,40.4,30.04,NNW,338,2.0,-999.0,92,0.02,,,0.02,Wunderground v.1.15,2013-01-08 14:47:00,
2013-01-08 06:52:00,42.6,40.4,30.04,NNW,338,2.0,-999.0,92,0.02,,,0.02,Wunderground v.1.15,2013-01-08 14:52:00,
2013-01-08 06:57:00,42.3,40.1,30.03,NNW,338,2.0,-999.0,92,0.02,,,0.02,Wunderground v.1.15,2013-01-08 14:57:00,
2013-01-08 07:02:00,42.3,40.1,30.03,NNW,338,2.0,-999.0,92,0.02,,,0.02,Wunderground v.1.15,2013-01-08 15:02:00,
2013-01-08 07:07:00,42.3,40.1,30.03,NNW,338,2.0,-999.0,92,0.02,,,0.02,Wunderground v.1.15,2013-01-08 15:07:00,
2013-01-08 07:12:00,42.2,40.0,30.02,NNW,338,1.0,-999.0,92,0.00,,,0.02,Wunderground v.1.15,2013-01-08 15:12:00,
2013-01-08 07:17:00,42.2,40.0,30.02,NNW,338,1.0,-999.0,92,0.00,,,0.02,Wunderground v.1.15,2013-01-08 15:17:00,
2013-01-08 07:22:00,42.2,40.0,30.02,NNW,338,1.0,-999.0,92,0.00,,,0.02,Wunderground v.1.15,2013-01-08 15:22:00,
2013-01-08 07:27:00,42.9,41.0,30.00,NNW,338,2.0,-999.0,93,0.00,,,0.02,Wunderground v.1.15,2013-01-08 15:27:00,
2013-01-08 07:32:00,42.9,41.0,30.00,NNW,338,2.0,-999.0,93,0.00,,,0.02,Wunderground v.1.15,2013-01-08 15:32:00,
2013-01-08 07:37:00,42.9,41.0,30.00,NNW,338,2.0,-999.0,93,0.00,,,0.02,Wunderground v.1.15,2013-01-08 15:37:00,
2013-01-08 07:42:00,43.1,41.2,30.00,NE,45,6.0,-999.0,93,0.00,,,0.02,Wunderground v.1.15,2013-01-08 15:42:00,
2013-01-08 08:00:00,42.9,41.0,29.99,ENE,78,6.0,6.0,93,0.00,,,0.03,Wunderground v.1.15,2013-01-08 16:00:00,
2013-01-08 08:10:00,42.7,40.5,29.98,East,96,6.0,6.0,92,0.00,,,0.03,Wunderground v.1.15,2013-01-08 16:10:00,
2013-01-08 08:20:00,42.5,40.1,29.98,ESE,103,8.0,8.0,91,0.00,,,0.03,Wunderground v.1.15,2013-01-08 16:20:00,
2013-01-08 08:29:00,42.4,39.4,29.97,ESE,105,11.0,11.0,89,0.00,,,0.03,Wunderground v.1.15,2013-01-08 16:29:00,
2013-01-08 08:40:00,42.1,38.8,29.97,ESE,110,11.0,16.0,88,0.00,,,0.04,Wunderground v.1.15,2013-01-08 16:40:00,
2013-01-08 08:50:00,41.7,38.4,29.96,ESE,106,10.0,12.0,88,0.00,,,0.04,Wunderground v.1.15,2013-01-08 16:50:00,
2013-01-08 08:59:00,41.4,38.4,29.95,ESE,102,10.0,12.0,89,0.00,,,0.04,Wunderground v.1.15,2013-01-08 16:59:00,
2013-01-08 09:09:00,41.3,38.3,29.95,ESE,109,9.0,9.0,89,0.00,,,0.05,Wunderground v.1.15,2013-01-08 17:09:00,
2013-01-08 09:19:00,41.1,38.4,29.94,ESE,117,6.0,6.0,90,0.00,,,0.05,Wunderground v.1.15,2013-01-08 17:19:00,
2013-01-08 09:29:00,41.1,38.4,29.93,ESE,117,5.0,12.0,90,0.04,,,0.06,Wunderground v.1.15,2013-01-08 17:29:00,
2013-01-08 09:39:00,41.1,38.7,29.93,ESE,117,4.0,4.0,91,0.04,,,0.06,Wunderground v.1.15,2013-01-08 17:39:00,
2013-01-08 09:49:00,41.1,38.7,29.92,ESE,117,1.0,12.0,91,0.00,,,0.07,Wunderground v.1.15,2013-01-08 17:49:00,
2013-01-08 09:59:00,40.9,38.5,29.91,ESE,117,2.0,2.0,91,0.04,,,0.08,Wunderground v.1.15,2013-01-08 17:59:00,
2013-01-08 10:09:00,40.7,38.3,29.91,ESE,117,1.0,12.0,91,0.04,,,0.08,Wunderground v.1.15,2013-01-08 18:09:00,
2013-01-08 10:19:00,40.5,38.1,29.90,ESE,117,2.0,2.0,91,0.05,,,0.09,Wunderground v.1.15,2013-01-08 18:19:00,
2013-01-08 10:29:00,40.3,37.9,29.90,ESE,117,1.0,12.0,91,0.04,,,0.10,Wunderground v.1.15,2013-01-08 18:29:00,
2013-01-08 10:39:00,40.3,37.9,29.90,ESE,117,1.0,12.0,91,0.05,,,0.11,Wunderground v.1.15,2013-01-08 18:39:00,
2013-01-08 10:49:00,40.2,37.8,29.89,ESE,117,1.0,12.0,91,0.05,,,0.11,Wunderground v.1.15,2013-01-08 18:49:00,
2013-01-08 10:59:00,40.1,37.7,29.88,ESE,117,2.0,2.0,91,0.00,,,0.12,Wunderground v.1.15,2013-01-08 18:59:00,
2013-01-08 11:09:00,40.1,38.0,29.89,ESE,117,2.0,12.0,92,0.00,,,0.12,Wunderground v.1.15,2013-01-08 19:09:00,
2013-01-08 11:19:00,40.2,38.1,29.88,ESE,117,2.0,12.0,92,0.00,,,0.12,Wunderground v.1.15,2013-01-08 19:19:00,
2013-01-08 11:29:00,40.4,38.3,29.87,ESE,117,1.0,1.0,92,0.00,,,0.12,Wunderground v.1.15,2013-01-08 19:29:00,
2013-01-08 11:39:00,40.6,38.5,29.87,ESE,117,1.0,1.0,92,0.00,,,0.12,Wunderground v.1.15,2013-01-08 19:39:00,
2013-01-08 11:49:00,40.6,38.5,29.87,ESE,117,1.0,1.0,92,0.00,,,0.13,Wunderground v.1.15,2013-01-08 19:49:00,
2013-01-08 11:59:00,40.6,38.5,29.86,ESE,117,0.0,12.0,92,0.05,,,0.14,Wunderground v.1.15,2013-01-08 19:59:00,
2013-01-08 12:09:00,40.7,38.6,29.84,ESE,117,0.0,12.0,92,0.04,,,0.14,Wunderground v.1.15,2013-01-08 20:09:00,
2013-01-08 12:19:00,40.7,38.6,29.84,ESE,117,1.0,12.0,92,0.00,,,0.14,Wunderground v.1.15,2013-01-08 20:19:00,
2013-01-08 12:29:00,41.0,39.1,29.83,ESE,117,1.0,1.0,93,0.00,,,0.14,Wunderground v.1.15,2013-01-08 20:29:00,
2013-01-08 12:39:00,41.4,39.3,29.81,ESE,117,1.0,12.0,92,0.00,,,0.14,Wunderground v.1.15,2013-01-08 20:39:00,
2013-01-08 12:48:00,41.5,39.1,29.82,ESE,117,2.0,2.0,91,0.00,,,0.14,Wunderground v.1.15,2013-01-08 20:48:00,
2013-01-08 12:58:00,41.8,39.6,29.81,ESE,117,1.0,1.0,92,0.00,,,0.14,Wunderground v.1.15,2013-01-08 20:58:00,
2013-01-08 13:08:00,42.3,40.1,29.81,ESE,117,0.0,12.0,92,0.00,,,0.14,Wunderground v.1.15,2013-01-08 21:08:00,
2013-01-08 13:18:00,42.4,40.0,29.81,ESE,117,1.0,12.0,91,0.00,,,0.14,Wunderground v.1.15,2013-01-08 21:18:00,
2013-01-08 13:28:00,42.5,40.1,29.81,ESE,117,2.0,12.0,91,0.00,,,0.14,Wunderground v.1.15,2013-01-08 21:28:00,
2013-01-08 13:38:00,42.5,40.1,29.80,ESE,117,1.0,12.0,91,0.00,,,0.14,Wunderground v.1.15,2013-01-08 21:38:00,
2013-01-08 13:48:00,42.5,40.1,29.79,ESE,117,1.0,12.0,91,0.00,,,0.14,Wunderground v.1.15,2013-01-08 21:48:00,
2013-01-08 13:58:00,42.4,39.7,29.78,ESE,117,1.0,12.0,90,0.00,,,0.14,Wunderground v.1.15,2013-01-08 21:58:00,
2013-01-08 14:08:00,42.3,39.6,29.78,ESE,117,0.0,12.0,90,0.00,,,0.14,Wunderground v.1.15,2013-01-08 22:08:00,
2013-01-08 14:18:00,42.3,39.6,29.77,ESE,117,0.0,12.0,90,0.00,,,0.14,Wunderground v.1.15,2013-01-08 22:18:00,
2013-01-08 14:28:00,42.4,39.7,29.77,ESE,117,0.0,12.0,90,0.00,,,0.14,Wunderground v.1.15,2013-01-08 22:28:00,
2013-01-08 14:38:00,42.3,39.6,29.77,ESE,117,1.0,1.0,90,0.00,,,0.14,Wunderground v.1.15,2013-01-08 22:38:00,
2013-01-08 14:48:00,42.4,39.7,29.75,ESE,117,1.0,12.0,90,0.00,,,0.14,Wunderground v.1.15,2013-01-08 22:48:00,
2013-01-08 14:58:00,42.2,39.8,29.73,ESE,117,3.0,12.0,91,0.00,,,0.14,Wunderground v.1.15,2013-01-08 22:58:00,
2013-01-08 15:08:00,42.1,39.9,29.72,ESE,117,4.0,4.0,92,0.00,,,0.14,Wunderground v.1.15,2013-01-08 23:08:00,
2013-01-08 15:18:00,42.1,39.9,29.71,ESE,117,3.0,3.0,92,0.00,,,0.14,Wunderground v.1.15,2013-01-08 23:18:00,
2013-01-08 15:28:00,42.2,40.0,29.69,ESE,117,6.0,12.0,92,0.00,,,0.14,Wunderground v.1.15,2013-01-08 23:28:00,
2013-01-08 15:38:00,42.4,40.5,29.70,ESE,117,6.0,6.0,93,0.00,,,0.14,Wunderground v.1.15,2013-01-08 23:38:00,
2013-01-08 15:48:00,42.6,40.4,29.67,ESE,117,5.0,12.0,92,0.00,,,0.14,Wunderground v.1.15,2013-01-08 23:48:00,
2013-01-08 15:58:00,42.7,40.5,29.65,East,89,3.0,12.0,92,0.00,,,0.14,Wunderground v.1.15,2013-01-08 23:58:00,
2013-01-08 16:08:00,43.0,40.8,29.67,ESE,107,4.0,12.0,92,0.00,,,0.14,Wunderground v.1.15,2013-01-09 00:08:00,
2013-01-08 16:18:00,43.0,40.8,29.67,ESE,111,2.0,2.0,92,0.00,,,0.14,Wunderground v.1.15,2013-01-09 00:18:00,
2013-01-08 16:28:00,43.0,40.8,29.68,SSW,204,4.0,12.0,92,0.00,,,0.14,Wunderground v.1.15,2013-01-09 00:28:00,
2013-01-08 16:38:00,43.0,40.8,29.67,WSW,240,4.0,4.0,92,0.00,,,0.14,Wunderground v.1.15,2013-01-09 00:38:00,
2013-01-08 16:47:00,42.9,40.7,29.67,NNW,348,4.0,13.0,92,0.00,,,0.14,Wunderground v.1.15,2013-01-09 00:47:00,
2013-01-08 16:57:00,42.9,40.7,29.67,NW,316,4.0,12.0,92,0.00,,,0.14,Wunderground v.1.15,2013-01-09 00:57:00,
2013-01-08 17:08:00,43.3,41.4,29.67,WSW,254,8.0,8.0,93,0.00,,,0.14,Wunderground v.1.15,2013-01-09 01:08:00,
2013-01-08 17:17:00,43.7,41.8,29.66,North,350,6.0,12.0,93,0.00,,,0.14,Wunderground v.1.15,2013-01-09 01:17:00,
2013-01-08 17:27:00,43.8,41.9,29.66,West,281,5.0,12.0,93,0.00,,,0.14,Wunderground v.1.15,2013-01-09 01:27:00,
2013-01-08 17:37:00,43.8,41.9,29.66,SW,218,4.0,4.0,93,0.00,,,0.14,Wunderground v.1.15,2013-01-09 01:37:00,
2013-01-08 17:47:00,43.5,41.6,29.65,SW,223,6.0,6.0,93,0.00,,,0.14,Wunderground v.1.15,2013-01-09 01:47:00,
2013-01-08 17:57:00,43.3,41.1,29.65,SW,217,5.0,12.0,92,0.00,,,0.14,Wunderground v.1.15,2013-01-09 01:57:00,
2013-01-08 18:07:00,43.0,41.1,29.63,SSW,209,4.0,4.0,93,0.00,,,0.14,Wunderground v.1.15,2013-01-09 02:07:00,
2013-01-08 18:17:00,42.9,41.0,29.64,South,170,2.0,12.0,93,0.00,,,0.14,Wunderground v.1.15,2013-01-09 02:17:00,
2013-01-08 18:27:00,42.9,41.0,29.64,NW,311,6.0,12.0,93,0.00,,,0.14,Wunderground v.1.15,2013-01-09 02:27:00,
2013-01-08 18:37:00,42.9,41.0,29.64,WNW,297,4.0,4.0,93,0.00,,,0.14,Wunderground v.1.15,2013-01-09 02:37:00,
2013-01-08 18:47:00,42.8,40.9,29.67,West,259,3.0,3.0,93,0.00,,,0.14,Wunderground v.1.15,2013-01-09 02:47:00,
2013-01-08 18:57:00,42.8,40.9,29.64,WSW,252,3.0,3.0,93,0.00,,,0.14,Wunderground v.1.15,2013-01-09 02:57:00,
2013-01-08 19:07:00,42.8,40.9,29.65,SSW,207,4.0,4.0,93,0.00,,,0.14,Wunderground v.1.15,2013-01-09 03:07:00,
2013-01-08 19:17:00,43.5,41.6,29.65,SW,225,5.0,5.0,93,0.00,,,0.14,Wunderground v.1.15,2013-01-09 03:17:00,
2013-01-08 19:27:00,44.2,42.3,29.65,South,175,2.0,12.0,93,0.00,,,0.14,Wunderground v.1.15,2013-01-09 03:27:00,
2013-01-08 19:37:00,44.3,42.4,29.64,SSW,192,1.0,12.0,93,0.00,,,0.15,Wunderground v.1.15,2013-01-09 03:37:00,
2013-01-08 19:47:00,44.0,42.1,29.65,SSW,192,2.0,2.0,93,0.00,,,0.15,Wunderground v.1.15,2013-01-09 03:47:00,
2013-01-08 19:57:00,44.0,42.1,29.64,SSW,192,1.0,12.0,93,0.00,,,0.15,Wunderground v.1.15,2013-01-09 03:57:00,
2013-01-08 20:07:00,43.8,41.9,29.64,SSW,192,2.0,12.0,93,0.00,,,0.15,Wunderground v.1.15,2013-01-09 04:07:00,
2013-01-08 20:17:00,43.7,41.8,29.65,SSW,192,2.0,12.0,93,0.00,,,0.15,Wunderground v.1.15,2013-01-09 04:17:00,
2013-01-08 20:27:00,44.8,43.2,29.64,East,92,5.0,12.0,94,0.00,,,0.15,Wunderground v.1.15,2013-01-09 04:27:00,
2013-01-08 20:36:00,45.0,43.1,29.65,East,92,3.0,3.0,93,0.00,,,0.15,Wunderground v.1.15,2013-01-09 04:36:00,
2013-01-08 20:46:00,45.8,43.9,29.64,East,92,2.0,12.0,93,0.00,,,0.16,Wunderground v.1.15,2013-01-09 04:46:00,
2013-01-08 20:57:00,46.4,44.5,29.63,East,92,2.0,2.0,93,0.04,,,0.17,Wunderground v.1.15,2013-01-09 04:57:00,
2013-01-08 21:06:00,46.5,44.6,29.63,East,92,1.0,12.0,93,0.04,,,0.17,Wunderground v.1.15,2013-01-09 05:06:00,
2013-01-08 21:16:00,46.5,44.3,29.64,East,92,1.0,12.0,92,0.00,,,0.17,Wunderground v.1.15,2013-01-09 05:16:00,
2013-01-08 21:26:00,46.3,44.1,29.64,East,92,1.0,12.0,92,0.00,,,0.18,Wunderground v.1.15,2013-01-09 05:26:00,
2013-01-08 21:36:00,46.1,43.9,29.64,East,92,1.0,1.0,92,0.00,,,0.19,Wunderground v.1.15,2013-01-09 05:36:00,
2013-01-08 21:46:00,45.8,43.6,29.64,East,92,1.0,1.0,92,0.00,,,0.19,Wunderground v.1.15,2013-01-09 05:46:00,
2013-01-08 21:56:00,45.8,43.9,29.64,East,92,0.0,12.0,93,0.05,,,0.20,Wunderground v.1.15,2013-01-09 05:56:00,